SP3OTE-2 Weather Reports


time (UTC)temp
C
wind
direction
speed
KPH
gust
KPH
rain 1hr
cm
rain 24hr
cm
rain mn
cm
humidity
%
barometer
mb
20260503054528 13 0.0 0.0 0.00 0.00 0.00 61 1018.0
20260503053527 13 0.0 0.0 0.00 0.00 0.00 62 1018.0
20260503052526 12 0.0 0.0 0.00 0.00 0.00 67 1018.2
20260503051526 11 0.0 0.0 0.00 0.00 0.00 70 1018.2
20260503050526 11 0.0 0.0 0.00 0.00 0.00 74 1018.2
20260503045526 10 0.0 0.0 0.00 0.00 0.00 78 1018.3
20260503044526 9 0.0 0.0 0.00 0.00 0.00 81 1018.4
20260503043525 8 0.0 0.0 0.00 0.00 0.00 81 1018.5
20260503042525 7 0.0 0.0 0.00 0.00 0.00 81 1018.5
20260503041525 7 0.0 0.0 0.00 0.00 0.00 81 1018.5
20260503040525 6 0.0 0.0 0.00 0.00 0.00 80 1018.4
20260503035524 6 0.0 0.0 0.00 0.00 0.00 79 1018.5
20260503034524 6 0.0 0.0 0.00 0.00 0.00 79 1018.5
20260503033524 6 0.0 0.0 0.00 0.00 0.00 78 1018.4
20260503032523 6 0.0 0.0 0.00 0.00 0.00 77 1018.5
20260503031523 6 0.0 0.0 0.00 0.00 0.00 76 1018.5
20260503030523 6 0.0 0.0 0.00 0.00 0.00 76 1018.5
20260503025523 7 0.0 0.0 0.00 0.00 0.00 75 1018.6
20260503024522 7 0.0 0.0 0.00 0.00 0.00 75 1018.6
20260503023522 7 0.0 0.0 0.00 0.00 0.00 74 1018.6
20260503022522 7 0.0 0.0 0.00 0.00 0.00 73 1018.7
20260503021522 7 0.0 0.0 0.00 0.00 0.00 72 1018.8
20260503020522 8 0.0 0.0 0.00 0.00 0.00 71 1018.8
20260503015521 8 0.0 0.0 0.00 0.00 0.00 71 1018.9
20260503014521 8 0.0 0.0 0.00 0.00 0.00 70 1018.9
20260503013521 8 0.0 0.0 0.00 0.00 0.00 70 1019.0
20260503012521 8 0.0 0.0 0.00 0.00 0.00 68 1018.9
20260503011520 8 0.0 0.0 0.00 0.00 0.00 68 1018.9
20260503010520 8 0.0 0.0 0.00 0.00 0.00 68 1019.0
20260503005520 9 0.0 0.0 0.00 0.00 0.00 66 1018.9
20260503004520 9 0.0 0.0 0.00 0.00 0.00 65 1019.1
20260503003520 10 0.0 0.0 0.00 0.00 0.00 66 1019.1
20260503002519 10 0.0 0.0 0.00 0.00 0.00 64 1019.2
20260503001519 10 0.0 0.0 0.00 0.00 0.00 64 1019.2
20260503000519 10 0.0 0.0 0.00 0.00 0.00 62 1019.1
20260502235518 10 0.0 0.0 0.00 0.00 0.00 60 1019.2
20260502234518 11 0.0 0.0 0.00 0.00 0.00 58 1019.4
20260502233518 11 0.0 0.0 0.00 0.00 0.00 56 1019.4
20260502232518 12 0.0 0.0 0.00 0.00 0.00 54 1019.4
20260502231518 12 0.0 0.0 0.00 0.00 0.00 54 1019.4
20260502230517 12 0.0 0.0 0.00 0.00 0.00 55 1019.3
20260502225517 12 0.0 0.0 0.00 0.00 0.00 55 1019.3
20260502224517 12 0.0 0.0 0.00 0.00 0.00 54 1019.3
20260502223516 13 0.0 0.0 0.00 0.00 0.00 51 1019.4
20260502222516 13 0.0 0.0 0.00 0.00 0.00 50 1019.4
20260502221516 14 0.0 0.0 0.00 0.00 0.00 49 1019.3
20260502220516 15 0.0 0.0 0.00 0.00 0.00 48 1019.5
20260502215515 15 0.0 0.0 0.00 0.00 0.00 48 1019.5
20260502214516 15 0.0 0.0 0.00 0.00 0.00 47 1019.6
20260502213515 15 0.0 0.0 0.00 0.00 0.00 47 1019.5
20260502212515 16 0.0 0.0 0.00 0.00 0.00 47 1019.4
20260502211515 15 0.0 0.0 0.00 0.00 0.00 48 1019.5
20260502210515 15 0.0 0.0 0.00 0.00 0.00 49 1019.5
20260502205514 13 0.0 0.0 0.00 0.00 0.00 55 1019.7
20260502204514 12 0.0 0.0 0.00 0.00 0.00 56 1019.9
20260502203514 13 0.0 0.0 0.00 0.00 0.00 56 1019.9
20260502202513 13 0.0 0.0 0.00 0.00 0.00 54 1019.9
20260502201513 13 0.0 0.0 0.00 0.00 0.00 54 1020.0
20260502200513 13 0.0 0.0 0.00 0.00 0.00 53 1019.9
20260502195513 14 0.0 0.0 0.00 0.00 0.00 52 1020.0
20260502194512 15 0.0 0.0 0.00 0.00 0.00 50 1019.9
20260502193512 15 0.0 0.0 0.00 0.00 0.00 50 1019.9
20260502192512 15 0.0 0.0 0.00 0.00 0.00 48 1019.9
20260502191512 16 0.0 0.0 0.00 0.00 0.00 47 1019.9
20260502190511 16 0.0 0.0 0.00 0.00 0.00 46 1019.8
20260502185511 17 0.0 0.0 0.00 0.00 0.00 45 1019.8
20260502184511 18 0.0 0.0 0.00 0.00 0.00 43 1019.7
20260502183511 18 0.0 0.0 0.00 0.00 0.00 42 1019.8
20260502182510 20 0.0 0.0 0.00 0.00 0.00 41 1019.7
20260502181510 21 0.0 0.0 0.00 0.00 0.00 39 1019.6
20260502180510 22 0.0 0.0 0.00 0.00 0.00 36 1019.6
20260502170508 33 0.0 0.0 0.00 0.00 0.00 23 1019.6
20260502163507 35 0.0 0.0 0.00 0.00 0.00 24 1020.0
20260502162507 35 0.0 0.0 0.00 0.00 0.00 24 1020.0
20260502161507 35 0.0 0.0 0.00 0.00 0.00 24 1020.1
20260502160505 35 0.0 0.0 0.00 0.00 0.00 24 1020.3
20260502151503 33 0.0 0.0 0.00 0.00 0.00 25 1020.7
20260502150503 33 0.0 0.0 0.00 0.00 0.00 24 1020.9
20260502130500 28 0.0 0.0 0.00 0.00 0.00 29 1022.1
20260502123459 26 0.0 0.0 0.00 0.00 0.00 30 1022.4
20260502122459 26 0.0 0.0 0.00 0.00 0.00 32 1022.5
20260502121459 26 0.0 0.0 0.00 0.00 0.00 32 1022.7
20260502120457 26 0.0 0.0 0.00 0.00 0.00 32 1022.9
20260502115457 25 0.0 0.0 0.00 0.00 0.00 32 1023.0
20260502114457 25 0.0 0.0 0.00 0.00 0.00 33 1023.1
20260502113456 24 0.0 0.0 0.00 0.00 0.00 34 1023.3
20260502112456 23 0.0 0.0 0.00 0.00 0.00 34 1023.5
20260502111456 23 0.0 0.0 0.00 0.00 0.00 33 1023.6
20260502110456 22 0.0 0.0 0.00 0.00 0.00 34 1023.7
20260502105455 22 0.0 0.0 0.00 0.00 0.00 35 1023.8
20260502104455 22 0.0 0.0 0.00 0.00 0.00 35 1023.9
20260502103455 22 0.0 0.0 0.00 0.00 0.00 35 1023.9
20260502102455 21 0.0 0.0 0.00 0.00 0.00 34 1024.0
20260502101454 21 0.0 0.0 0.00 0.00 0.00 36 1024.4
20260502100454 21 0.0 0.0 0.00 0.00 0.00 35 1024.5
20260502091453 20 0.0 0.0 0.00 0.00 0.00 37 1024.9
20260502090453 20 0.0 0.0 0.00 0.00 0.00 38 1024.9
20260502071450 16 0.0 0.0 0.00 0.00 0.00 52 1025.5
20260502070450 16 0.0 0.0 0.00 0.00 0.00 52 1025.5
20260502065450 15 0.0 0.0 0.00 0.00 0.00 55 1025.5
20260502064449 15 0.0 0.0 0.00 0.00 0.00 59 1025.5
20260502063449 13 0.0 0.0 0.00 0.00 0.00 64 1025.6
20260502062449 13 0.0 0.0 0.00 0.00 0.00 66 1025.6
20260502061449 12 0.0 0.0 0.00 0.00 0.00 69 1025.7
20260502060448 12 0.0 0.0 0.00 0.00 0.00 73 1025.6